Weather History for LTCJ - September, 2013

Change the Weather History Date:

Wednesday, September 25, 2013

  Actual Average (LTCC) Record (LTCC)
Temperature  
Mean Temperature 65 °F -  
Max Temperature 82 °F 87 °F 96 °F (2002)
Min Temperature 48 °F 57 °F 53 °F (1997)
Growing Degree Days 15 (Base 50)    
Moisture  
Dew Point 31 °F    
Average Humidity 32    
Maximum Humidity 62    
Minimum Humidity 14    
Precipitation  
Precipitation 0.00 in - - ()
Sea Level Pressure  
Sea Level Pressure 29.90 in    
Wind  
Wind Speed 4 mph ()    
Max Wind Speed 12 mph    
Max Gust Speed -    
Visibility 4.1 miles    
Events      
Averages and records for this station are not official NWS values.
T = Trace of Precipitation, MM = Missing Value Source: Averaged Metar Reports

Daily Weather History Graph

Daily Weather History Graph

Search for Another Location

Airport or City:

Trip Planner

Search our weather history database for the weather conditions in past years. The results will help you decide how hot, cold, wet, or windy it might be!

Date:

Astronomy

Sep. 25, 2013 Rise Set
Actual Time 6:05 AM EEST 6:07 PM EEST
Civil Twilight 5:39 AM EEST 6:34 PM EEST
Nautical Twilight 5:08 AM EEST 7:04 PM EEST
Astronomical Twilight 4:37 AM EEST 7:35 PM EEST
Moon 10:01 PM EEST (9/25) 11:48 AM EEST (9/25)
Length of Visible Light 12h 54m
Length of Day
12h 02m
Waning Gibbous, 67% of the Moon is Illuminated
Sep 25
Waning Gibbous
Sep 27
Last Quarter
Oct 5
New
Oct 12
First Quarter
Oct 19
Full

Hourly Weather History & Observations

Time (EEST) Temp. Dew Point Humidity Pressure Visibility Wind Dir Wind Speed Gust Speed Precip Events Conditions
12:20 AM 53.6 °F 30.2 °F 41% 29.83 in - ESE 2.3 mph - N/A   Clear
12:50 AM 55.4 °F 28.4 °F 36% 29.80 in - Variable 2.3 mph - N/A   Clear
1:20 AM 51.8 °F 33.8 °F 50% 29.83 in - NE 8.1 mph - N/A   Clear
1:50 AM 51.8 °F 32.0 °F 47% 29.83 in - NE 5.8 mph - N/A   Clear
2:20 AM 50.0 °F 35.6 °F 58% 29.83 in - North 3.5 mph - N/A   Clear
2:50 AM 50.0 °F 33.8 °F 54% 29.83 in - North 4.6 mph - N/A   Clear
3:20 AM 48.2 °F 32.0 °F 54% 29.83 in - North 4.6 mph - N/A   Clear
3:50 AM 48.2 °F 35.6 °F 62% 29.86 in - Variable 2.3 mph - N/A   Clear
4:20 AM 48.2 °F 35.6 °F 62% 29.86 in - Variable 2.3 mph - N/A   Clear
4:50 AM 48.2 °F 35.6 °F 62% 29.86 in - Calm Calm - N/A   Clear
5:20 AM 50.0 °F 33.8 °F 54% 29.86 in - SW 4.6 mph - N/A   Clear
5:50 AM 48.2 °F 33.8 °F 58% 29.89 in - WSW 2.3 mph - N/A   Clear
6:20 AM 48.2 °F 32.0 °F 54% 29.89 in - Variable 1.2 mph - N/A   Clear
6:50 AM 50.0 °F 30.2 °F 47% 29.89 in - Variable 2.3 mph - N/A   Clear
7:20 AM 53.6 °F 32.0 °F 44% 29.89 in - SW 3.5 mph - N/A   Clear
7:50 AM 55.4 °F 35.6 °F 47% 29.92 in - North 4.6 mph - N/A   Clear
8:20 AM 59.0 °F 32.0 °F 36% 29.92 in - North 4.6 mph - N/A   Clear
8:50 AM 62.6 °F 30.2 °F 30% 29.92 in - NE 3.5 mph - N/A   Clear
9:20 AM 68.0 °F 30.2 °F 24% 29.92 in - Variable 3.5 mph - N/A   Clear
9:50 AM 68.0 °F 30.2 °F 24% 29.92 in - WSW 5.8 mph - N/A   Clear
10:20 AM 71.6 °F 30.2 °F 22% 29.92 in - Variable 3.5 mph - N/A   Clear
10:50 AM 73.4 °F 30.2 °F 20% 29.92 in - SW 4.6 mph - N/A   Clear
11:20 AM 75.2 °F 32.0 °F 21% 29.92 in - WSW 5.8 mph - N/A   Clear
11:50 AM 77.0 °F 30.2 °F 18% 29.92 in - SW 6.9 mph - N/A   Clear
12:20 PM 78.8 °F 28.4 °F 16% 29.89 in - Variable 5.8 mph - N/A   Clear
12:50 PM 78.8 °F 28.4 °F 16% 29.89 in - SW 9.2 mph - N/A   Clear
1:20 PM 80.6 °F 28.4 °F 15% 29.89 in - SW 10.4 mph - N/A   Clear
1:50 PM 80.6 °F 28.4 °F 15% 29.89 in - Variable 9.2 mph - N/A   Clear
2:20 PM 80.6 °F 28.4 °F 15% 29.89 in - WSW 9.2 mph - N/A   Clear
2:50 PM 82.4 °F 28.4 °F 14% 29.89 in - Variable 6.9 mph - N/A   Clear
3:20 PM 82.4 °F 28.4 °F 14% 29.89 in - SW 8.1 mph - N/A   Clear
3:50 PM 82.4 °F 28.4 °F 14% 29.89 in - SW 11.5 mph - N/A   Clear
4:20 PM 82.4 °F 28.4 °F 14% 29.89 in - WSW 9.2 mph - N/A   Clear
4:50 PM 80.6 °F 30.2 °F 16% 29.89 in - WSW 11.5 mph - N/A   Clear
5:20 PM 80.6 °F 28.4 °F 15% 29.89 in - WSW 8.1 mph - N/A   Clear
5:50 PM 77.0 °F 30.2 °F 18% 29.89 in - WSW 5.8 mph - N/A   Clear
6:20 PM 75.2 °F 32.0 °F 21% 29.89 in - Variable 1.2 mph - N/A   Clear
6:50 PM 71.6 °F 30.2 °F 22% 29.92 in - Variable 1.2 mph - N/A   Clear
7:20 PM 71.6 °F 30.2 °F 22% 29.92 in - WSW 3.5 mph - N/A   Clear
7:50 PM 69.8 °F 30.2 °F 23% 29.92 in - Variable 2.3 mph - N/A   Clear
8:20 PM 66.2 °F 30.2 °F 26% 29.95 in - Variable 1.2 mph - N/A   Clear
8:50 PM 66.2 °F 32.0 °F 28% 29.95 in - SSW 4.6 mph - N/A   Clear
9:20 PM 64.4 °F 32.0 °F 30% 29.95 in - SSW 4.6 mph - N/A   Clear
9:50 PM 64.4 °F 32.0 °F 30% 29.98 in 4.3 mi South 4.6 mph - N/A   Unknown
10:20 PM 60.8 °F 32.0 °F 34% 29.98 in 4.3 mi South 5.8 mph - N/A   Unknown
10:50 PM 62.6 °F 32.0 °F 32% 29.98 in - South 6.9 mph - N/A   Clear
11:20 PM 62.6 °F 32.0 °F 32% 29.98 in 3.7 mi South 6.9 mph - N/A   Unknown
11:50 PM 60.8 °F 32.0 °F 34% 29.98 in 4.3 mi South 6.9 mph - N/A   Unknown